This is the latest recevied weather packets stored in our database for station/object VK5TRM-13. If no packets are shown the sender has not sent any weather packets the latest 10 day(s).
| Time | Temp. | Humidity | Pressure | Rain* | Wind** | Luminosity | Snow |
|---|---|---|---|---|---|---|---|
| 1777623304 | 25° C | 35% | 1016.8 hPa | 0 mm | - | - | - |
| 1777622404 | 25° C | 36% | 1016.8 hPa | 0 mm | - | - | - |
| 1777621504 | 25° C | 36% | 1016.8 hPa | 0 mm | - | - | - |
| 1777620607 | 26.67° C | 33% | 1017.1 hPa | 0 mm | - | - | - |
| 1777619705 | 26.67° C | 33% | 1017.1 hPa | 0 mm | - | - | - |
| 1777618806 | 26.67° C | 33% | 1017.3 hPa | 0 mm | - | - | - |
| 1777617905 | 26.67° C | 33% | 1017.3 hPa | 0 mm | - | - | - |
| 1777617005 | 27.22° C | 32% | 1017.5 hPa | 0 mm | - | - | - |
| 1777616105 | 27.22° C | 32% | 1017.5 hPa | 0 mm | - | - | - |
| 1777615204 | 27.22° C | 32% | 1017.6 hPa | 0 mm | - | - | - |
| 1777614304 | 27.22° C | 32% | 1017.6 hPa | 0 mm | - | - | - |
| 1777613405 | 27.22° C | 31% | 1017.7 hPa | 0 mm | - | - | - |
| 1777612505 | 27.22° C | 31% | 1017.7 hPa | 0 mm | - | - | - |
| 1777611607 | 28.33° C | 31% | 1018 hPa | 0 mm | - | - | - |
| 1777610705 | 28.33° C | 31% | 1018 hPa | 0 mm | - | - | - |
| 1777609807 | 28.33° C | 28% | 1018.3 hPa | 0 mm | - | - | - |
| 1777608905 | 28.33° C | 28% | 1018.3 hPa | 0 mm | - | - | - |
| 1777608005 | 27.78° C | 29% | 1018.7 hPa | 0 mm | - | - | - |
| 1777607105 | 27.78° C | 29% | 1018.7 hPa | 0 mm | - | - | - |
| 1777606205 | 28.33° C | 29% | 1019.2 hPa | 0 mm | - | - | - |
| 1777605304 | 28.33° C | 29% | 1019.2 hPa | 0 mm | - | - | - |
| 1777604405 | 28.33° C | 30% | 1019.9 hPa | 0 mm | - | - | - |
| 1777603505 | 28.33° C | 30% | 1019.9 hPa | 0 mm | - | - | - |
| 1777602604 | 27.22° C | 31% | 1020.5 hPa | 0 mm | - | - | - |
| 1777601704 | 27.22° C | 31% | 1020.5 hPa | 0 mm | - | - | - |
* Rain since midnight (hover to see other rain measurements)
** Current wind speed in m/s (hover to see current wind gust speed)